Location: Cornospital
(48.0620°N, 3.3837°W)
Time: 14:34:09
(UTC+00:00)

ARIANE 5 R/B - Pass Details

Date: 17 June 2021
Orbit: 620 x 656 km, 98.1° (Epoch: 28 July)

Event Time Altitude Azimuth Distance (km) Brightness Sun altitude
Exits shadow 22:06:47 11° 192° (SSW) 1,957 4.7 -13.0°
Maximum altitude 22:10:46 41° 262° (W) 943 3.7 -13.3°
Drops below altitude 10° 22:15:02 10° 333° (NNW) 2,064 6.7 -13.7°
Sets 22:17:23 0° 340° (NNW) 2,984 8.0 -13.8°
